DLA8778 EDDF-EGLC

Flight info

Callsign DLA8778
Flight time N/A
Altitude 34000
Route SOBRA2L/18 SOBRA Y180 BITBU Y181 DEMUL DCT DENUT L608 SUMUM
Aircraft E190/M-SDE3GILORVW/S

Departure

Time 2026-04-14 12:46
Airport Frankfurt Main Airport (EDDF)

Arrival

Time N/A
Airport London City Airport (EGLC)
Time Latitude Longitude Altitude Speed Heading
2026-04-14 11:51 50.04761 8.56385 361 ft 0 kts 340°
2026-04-14 12:32 50.04750 8.56392 355 ft 4 kts 338°
2026-04-14 12:32 50.04717 8.56414 355 ft 4 kts 332°
2026-04-14 12:32 50.04694 8.56435 355 ft 4 kts 323°
2026-04-14 12:32 50.04675 8.56463 355 ft 4 kts 300°
2026-04-14 12:33 50.04667 8.56486 359 ft 4 kts 308°
2026-04-14 12:33 50.04648 8.56505 355 ft 4 kts 10°
2026-04-14 12:33 50.04637 8.56501 355 ft 3 kts 24°
2026-04-14 12:33 50.04658 8.56490 357 ft 4 kts 323°
2026-04-14 12:34 50.04667 8.56454 355 ft 4 kts 279°
2026-04-14 12:34 50.04663 8.56416 355 ft 2 kts 252°
2026-04-14 12:34 50.04655 8.56385 355 ft 1 kts 250°
2026-04-14 12:37 50.04645 8.56344 360 ft 8 kts 250°
2026-04-14 12:37 50.04618 8.56230 355 ft 14 kts 249°
2026-04-14 12:37 50.04582 8.56080 357 ft 16 kts 250°
2026-04-14 12:37 50.04525 8.55956 355 ft 13 kts 199°
2026-04-14 12:38 50.04343 8.55928 356 ft 15 kts 160°
2026-04-14 12:38 50.04243 8.55938 358 ft 14 kts 221°
2026-04-14 12:38 50.04206 8.55797 355 ft 16 kts 249°
2026-04-14 12:39 50.04164 8.55624 354 ft 18 kts 250°
2026-04-14 12:39 50.04118 8.55431 352 ft 20 kts 250°
2026-04-14 12:39 50.04071 8.55229 352 ft 20 kts 250°
2026-04-14 12:39 50.04021 8.55026 358 ft 21 kts 246°
2026-04-14 12:40 50.03968 8.54804 352 ft 25 kts 248°
2026-04-14 12:40 50.03900 8.54522 350 ft 30 kts 249°
2026-04-14 12:40 50.03811 8.54245 349 ft 27 kts 241°
2026-04-14 12:40 50.03743 8.53989 346 ft 25 kts 249°
2026-04-14 12:41 50.03679 8.53726 341 ft 27 kts 249°
2026-04-14 12:41 50.03613 8.53446 337 ft 28 kts 250°
2026-04-14 12:41 50.03544 8.53151 334 ft 30 kts 249°
2026-04-14 12:41 50.03478 8.52891 336 ft 20 kts 247°
2026-04-14 12:42 50.03425 8.52692 333 ft 10 kts 248°
2026-04-14 12:42 50.03423 8.52686 334 ft 0 kts 248°
2026-04-14 12:44 50.03422 8.52680 334 ft 2 kts 248°
2026-04-14 12:44 50.03410 8.52635 331 ft 7 kts 248°
2026-04-14 12:45 50.03223 8.52596 334 ft 56 kts 179°
2026-04-14 12:45 50.02581 8.52602 334 ft 128 kts 179°
2026-04-14 12:45 50.01517 8.52618 603 ft 166 kts 179°
2026-04-14 12:45 50.00289 8.52661 874 ft 177 kts 178°
2026-04-14 12:46 49.99077 8.52744 728 ft 173 kts 177°
2026-04-14 12:46 49.97899 8.52834 762 ft 165 kts 177°
2026-04-14 12:46 49.96750 8.52922 1376 ft 165 kts 177°
2026-04-14 12:46 49.95534 8.53018 1864 ft 185 kts 177°
2026-04-14 12:47 49.94216 8.53116 2470 ft 195 kts 179°
2026-04-14 12:47 49.92801 8.53199 2998 ft 212 kts 178°
2026-04-14 12:47 49.91300 8.53309 3680 ft 219 kts 177°
2026-04-14 12:47 49.89771 8.53411 4429 ft 222 kts 178°
2026-04-14 12:48 49.88195 8.53508 5147 ft 231 kts 178°
2026-04-14 12:48 49.86487 8.53275 5337 ft 266 kts 195°
2026-04-14 12:48 49.84697 8.52302 5986 ft 277 kts 202°
2026-04-14 12:48 49.82898 8.51196 6814 ft 281 kts 202°
2026-04-14 12:49 49.81091 8.50118 7610 ft 283 kts 201°
2026-04-14 12:49 49.79241 8.49027 8432 ft 286 kts 201°
2026-04-14 12:49 49.77436 8.47705 9214 ft 289 kts 217°
2026-04-14 12:49 49.76166 8.45341 10045 ft 288 kts 246°
2026-04-14 12:50 49.75676 8.42285 10538 ft 303 kts 271°
2026-04-14 12:50 49.76592 8.35645 11686 ft 327 kts 285°
2026-04-14 12:50 49.77179 8.32236 12533 ft 330 kts 284°
2026-04-14 12:51 49.77776 8.28821 13320 ft 336 kts 284°
2026-04-14 12:51 49.78419 8.25324 14149 ft 340 kts 285°
2026-04-14 12:51 49.79109 8.21808 15021 ft 343 kts 284°
2026-04-14 12:51 49.79695 8.18208 15858 ft 347 kts 282°
2026-04-14 12:52 49.80255 8.14565 16688 ft 349 kts 282°
2026-04-14 12:52 49.80831 8.10886 17444 ft 354 kts 282°
2026-04-14 12:52 49.81413 8.07161 18207 ft 357 kts 282°
2026-04-14 12:52 49.82002 8.03401 18931 ft 362 kts 282°
2026-04-14 12:53 49.82598 7.99603 19642 ft 365 kts 282°
2026-04-14 12:53 49.83193 7.95813 20313 ft 369 kts 282°
2026-04-14 12:53 49.83803 7.91931 20952 ft 372 kts 282°
2026-04-14 12:53 49.84418 7.88014 21556 ft 376 kts 282°
2026-04-14 12:54 49.85037 7.84060 22139 ft 380 kts 282°
2026-04-14 12:54 49.85658 7.80073 22729 ft 383 kts 281°
2026-04-14 12:54 49.86284 7.76048 23286 ft 386 kts 281°
2026-04-14 12:54 49.86926 7.71983 23857 ft 390 kts 282°
2026-04-14 12:55 49.87573 7.67864 24322 ft 395 kts 281°
2026-04-14 12:55 49.88207 7.63751 24913 ft 398 kts 282°
2026-04-14 12:55 49.88856 7.59556 25452 ft 400 kts 282°
2026-04-14 12:55 49.89507 7.55334 25862 ft 406 kts 282°
2026-04-14 12:56 49.90161 7.51079 26345 ft 409 kts 282°
2026-04-14 12:56 49.90819 7.46787 26799 ft 412 kts 282°
2026-04-14 12:56 49.91476 7.42479 27340 ft 411 kts 282°
2026-04-14 12:56 49.92135 7.38159 27746 ft 413 kts 282°
2026-04-14 12:57 49.92796 7.33811 28183 ft 415 kts 282°
2026-04-14 12:57 49.93449 7.29508 28657 ft 416 kts 282°
2026-04-14 12:57 49.94112 7.25125 29023 ft 419 kts 282°
2026-04-14 12:57 49.94777 7.20716 29440 ft 420 kts 282°
2026-04-14 12:58 49.95441 7.16309 29854 ft 422 kts 283°
2026-04-14 12:58 49.96107 7.11866 30232 ft 422 kts 283°
2026-04-14 12:58 49.96769 7.07426 30676 ft 422 kts 283°
2026-04-14 12:58 49.97431 7.02985 31096 ft 422 kts 283°
2026-04-14 12:59 49.98089 6.98551 31497 ft 421 kts 283°
2026-04-14 12:59 49.98737 6.94181 31866 ft 420 kts 284°
2026-04-14 12:59 49.99203 6.89708 32211 ft 422 kts 272°
2026-04-14 12:59 49.99157 6.85142 32538 ft 422 kts 269°
2026-04-14 13:00 49.99018 6.80587 32869 ft 422 kts 269°
2026-04-14 13:00 49.98881 6.76022 33193 ft 422 kts 269°
2026-04-14 13:00 49.98745 6.71475 33510 ft 422 kts 269°
2026-04-14 13:00 49.98606 6.66916 33798 ft 422 kts 270°
2026-04-14 13:01 49.98468 6.62374 34108 ft 421 kts 270°
2026-04-14 13:01 49.98184 6.53178 34086 ft 436 kts 270°
2026-04-14 13:02 49.97883 6.43664 34073 ft 445 kts 270°
2026-04-14 13:02 49.97568 6.34048 33997 ft 446 kts 270°
2026-04-14 13:03 49.97244 6.24421 33999 ft 447 kts 270°
2026-04-14 13:03 49.96918 6.14854 33990 ft 447 kts 270°
2026-04-14 13:04 49.96558 6.05223 33996 ft 447 kts 269°
2026-04-14 13:04 49.96337 5.95597 34011 ft 443 kts 278°
2026-04-14 13:04 49.97017 5.90976 34011 ft 438 kts 294°
2026-04-14 13:05 49.98515 5.86898 34019 ft 434 kts 310°
2026-04-14 13:05 50.02541 5.79919 34007 ft 433 kts 314°
2026-04-14 13:06 50.06579 5.73066 34001 ft 432 kts 314°
2026-04-14 13:06 50.10643 5.66167 34020 ft 432 kts 314°
2026-04-14 13:07 50.14700 5.59260 34021 ft 431 kts 314°
2026-04-14 13:07 50.18745 5.52355 34016 ft 431 kts 313°
2026-04-14 13:08 50.22754 5.45495 34017 ft 430 kts 313°
2026-04-14 13:08 50.26766 5.38598 34025 ft 428 kts 313°
2026-04-14 13:09 50.30765 5.31716 34021 ft 427 kts 313°
2026-04-14 13:09 50.34709 5.24865 34029 ft 425 kts 313°
2026-04-14 13:10 50.38665 5.17979 34025 ft 424 kts 313°
2026-04-14 13:10 50.42615 5.11112 34019 ft 423 kts 313°
2026-04-14 13:11 50.46549 5.04268 34030 ft 422 kts 313°
2026-04-14 13:11 50.50477 4.97415 34024 ft 421 kts 313°
2026-04-14 13:12 50.54362 4.90631 34029 ft 420 kts 313°
2026-04-14 13:12 50.58260 4.83799 34028 ft 420 kts 313°
2026-04-14 13:13 50.62147 4.76974 34026 ft 419 kts 313°
2026-04-14 13:13 50.66023 4.70146 34024 ft 418 kts 313°
2026-04-14 13:14 50.69868 4.63355 34027 ft 418 kts 313°
2026-04-14 13:14 50.73723 4.56524 34027 ft 417 kts 313°
2026-04-14 13:15 50.77573 4.49687 34033 ft 417 kts 313°
2026-04-14 13:15 50.81417 4.42848 34027 ft 415 kts 313°
2026-04-14 13:16 50.85229 4.36059 34022 ft 416 kts 313°
2026-04-14 13:16 50.89065 4.29213 34022 ft 416 kts 312°
2026-04-14 13:17 50.92892 4.22353 34030 ft 415 kts 312°
2026-04-14 13:17 50.96711 4.15481 34027 ft 414 kts 312°
2026-04-14 13:18 51.00517 4.08618 34028 ft 414 kts 312°
2026-04-14 13:18 51.04298 4.01787 34031 ft 414 kts 312°
2026-04-14 13:19 51.08098 3.94927 34015 ft 411 kts 312°
2026-04-14 13:19 51.11870 3.88098 34014 ft 411 kts 312°
2026-04-14 13:20 51.15640 3.81247 34007 ft 411 kts 312°
2026-04-14 13:20 51.19377 3.74432 34012 ft 411 kts 312°
2026-04-14 13:21 51.23128 3.67551 34017 ft 411 kts 310°
2026-04-14 13:21 51.26115 3.59735 34034 ft 413 kts 301°
2026-04-14 13:22 51.28964 3.51765 34028 ft 413 kts 302°
2026-04-14 13:22 51.31798 3.43851 33837 ft 411 kts 302°
2026-04-14 13:22 51.33197 3.39937 33551 ft 399 kts 302°
2026-04-14 13:23 51.34544 3.36084 33110 ft 397 kts 298°
2026-04-14 13:23 51.35602 3.31992 32559 ft 398 kts 294°
2026-04-14 13:23 51.36590 3.27862 31999 ft 398 kts 294°
2026-04-14 13:23 51.37574 3.23733 31485 ft 396 kts 294°
2026-04-14 13:24 51.38555 3.19601 30949 ft 397 kts 294°
2026-04-14 13:24 51.40507 3.11375 29903 ft 398 kts 294°
2026-04-14 13:24 51.41487 3.07228 29373 ft 400 kts 294°
2026-04-14 13:25 51.42472 3.03049 28839 ft 401 kts 294°
2026-04-14 13:25 51.43456 2.98870 28308 ft 400 kts 294°
2026-04-14 13:26 51.46358 2.86462 26722 ft 393 kts 293°
2026-04-14 13:26 51.47314 2.82374 26210 ft 391 kts 292°
2026-04-14 13:26 51.48249 2.78356 25699 ft 389 kts 292°
2026-04-14 13:26 51.49192 2.74300 25166 ft 387 kts 292°
2026-04-14 13:27 51.50130 2.70257 24658 ft 385 kts 292°
2026-04-14 13:27 51.51064 2.66227 24148 ft 384 kts 291°
2026-04-14 13:27 51.51992 2.62215 23640 ft 383 kts 291°
2026-04-14 13:27 51.52912 2.58217 23133 ft 380 kts 291°
2026-04-14 13:28 51.53825 2.54254 22631 ft 377 kts 291°
2026-04-14 13:28 51.54729 2.50316 22137 ft 374 kts 291°
2026-04-14 13:28 51.55613 2.46459 21645 ft 372 kts 291°
2026-04-14 13:28 51.56501 2.42570 21147 ft 369 kts 291°
2026-04-14 13:29 51.57382 2.38707 20666 ft 367 kts 290°
2026-04-14 13:29 51.58257 2.34865 20164 ft 365 kts 290°
2026-04-14 13:29 51.59125 2.31050 19683 ft 362 kts 290°
2026-04-14 13:29 51.59988 2.27261 19202 ft 360 kts 290°
2026-04-14 13:30 51.60845 2.23494 18727 ft 357 kts 290°
2026-04-14 13:30 51.61694 2.19753 18251 ft 355 kts 290°
2026-04-14 13:30 51.62539 2.16022 17791 ft 353 kts 290°
2026-04-14 13:30 51.63365 2.12370 17324 ft 351 kts 290°
2026-04-14 13:31 51.64195 2.08691 16859 ft 349 kts 289°
2026-04-14 13:31 51.65016 2.05025 16381 ft 347 kts 289°
2026-04-14 13:31 51.65830 2.01392 15919 ft 343 kts 289°
2026-04-14 13:31 51.66637 1.97777 15471 ft 342 kts 289°
2026-04-14 13:32 51.67441 1.94185 15019 ft 340 kts 289°
2026-04-14 13:32 51.68233 1.90632 14561 ft 333 kts 289°
2026-04-14 13:32 51.69002 1.87171 14123 ft 322 kts 289°
2026-04-14 13:32 51.69739 1.83864 13680 ft 314 kts 289°
2026-04-14 13:33 51.70464 1.80598 13277 ft 305 kts 289°
2026-04-14 13:33 51.71171 1.77409 12877 ft 298 kts 289°
2026-04-14 13:33 51.71859 1.74297 12486 ft 292 kts 289°
2026-04-14 13:33 51.72535 1.71245 12103 ft 286 kts 289°
2026-04-14 13:34 51.73845 1.65291 11332 ft 278 kts 289°
2026-04-14 13:34 51.74487 1.62356 10994 ft 276 kts 287°
2026-04-14 13:34 51.74716 1.59344 10650 ft 275 kts 271°
2026-04-14 13:35 51.74742 1.56250 10374 ft 276 kts 265°
2026-04-14 13:35 51.74213 1.53296 10115 ft 276 kts 242°
2026-04-14 13:35 51.73043 1.50864 9913 ft 276 kts 224°
2026-04-14 13:35 51.71489 1.49040 9691 ft 278 kts 212°
2026-04-14 13:36 51.70071 1.46966 9408 ft 277 kts 233°
2026-04-14 13:36 51.68912 1.44498 9163 ft 275 kts 231°
2026-04-14 13:36 51.67701 1.42133 9001 ft 270 kts 230°
2026-04-14 13:36 51.66485 1.39830 8968 ft 271 kts 229°
2026-04-14 13:37 51.65264 1.37555 8763 ft 275 kts 229°
2026-04-14 13:37 51.63998 1.35270 8499 ft 270 kts 223°
2026-04-14 13:37 51.62394 1.33856 8217 ft 262 kts 197°
2026-04-14 13:37 51.60656 1.33157 7995 ft 254 kts 195°
2026-04-14 13:38 51.58948 1.32562 7732 ft 249 kts 190°
2026-04-14 13:38 51.57242 1.32352 7462 ft 244 kts 189°
2026-04-14 13:38 51.55746 1.31262 7187 ft 237 kts 224°
2026-04-14 13:38 51.54981 1.28997 6969 ft 232 kts 253°
2026-04-14 13:39 51.54600 1.26517 6764 ft 226 kts 253°
2026-04-14 13:39 51.54188 1.24120 6500 ft 225 kts 252°
2026-04-14 13:39 51.53747 1.21722 6239 ft 223 kts 251°
2026-04-14 13:39 51.53296 1.19360 6001 ft 219 kts 251°
2026-04-14 13:40 51.52843 1.17082 5971 ft 210 kts 250°
2026-04-14 13:40 51.52380 1.14853 5970 ft 211 kts 249°
2026-04-14 13:40 51.51908 1.12600 5974 ft 214 kts 249°
2026-04-14 13:40 51.51426 1.10325 5980 ft 216 kts 249°
2026-04-14 13:41 51.50941 1.08031 5990 ft 217 kts 249°
2026-04-14 13:41 51.50454 1.05726 5987 ft 219 kts 249°
2026-04-14 13:41 51.49963 1.03416 5974 ft 218 kts 249°
2026-04-14 13:41 51.49481 1.01141 5964 ft 219 kts 249°
2026-04-14 13:42 51.48993 0.98831 5948 ft 219 kts 249°
2026-04-14 13:42 51.48501 0.96529 5979 ft 218 kts 249°
2026-04-14 13:42 51.48010 0.94224 5997 ft 218 kts 249°
2026-04-14 13:42 51.47633 0.91869 6006 ft 221 kts 264°
2026-04-14 13:43 51.47657 0.89402 6013 ft 223 kts 270°
2026-04-14 13:43 51.47736 0.86904 5869 ft 227 kts 270°
2026-04-14 13:43 51.47806 0.84345 5558 ft 230 kts 270°
2026-04-14 13:43 51.47877 0.81803 5311 ft 227 kts 269°
2026-04-14 13:44 51.47951 0.79298 5077 ft 224 kts 270°
2026-04-14 13:44 51.48048 0.76821 4833 ft 221 kts 270°
2026-04-14 13:44 51.48138 0.74401 4586 ft 219 kts 270°
2026-04-14 13:44 51.48226 0.71969 4345 ft 218 kts 270°
2026-04-14 13:45 51.48319 0.69547 4093 ft 219 kts 270°
2026-04-14 13:45 51.48412 0.67115 3828 ft 218 kts 270°
2026-04-14 13:45 51.48504 0.64703 3599 ft 213 kts 270°
2026-04-14 13:45 51.48592 0.62382 3420 ft 204 kts 270°
2026-04-14 13:46 51.48673 0.60201 3167 ft 189 kts 269°
2026-04-14 13:46 51.48749 0.58186 3055 ft 170 kts 269°
2026-04-14 13:46 51.48814 0.56390 3011 ft 158 kts 269°
2026-04-14 13:46 51.48872 0.54652 2971 ft 155 kts 268°
2026-04-14 13:47 51.48927 0.52960 3047 ft 150 kts 268°
2026-04-14 13:47 51.48993 0.51283 3185 ft 152 kts 269°
2026-04-14 13:47 51.49054 0.49641 3245 ft 141 kts 267°
2026-04-14 13:47 51.49105 0.48099 3248 ft 137 kts 268°
2026-04-14 13:48 51.49162 0.46551 3073 ft 139 kts 268°
2026-04-14 13:48 51.49214 0.45056 3013 ft 132 kts 267°
2026-04-14 13:48 51.49266 0.43587 3056 ft 132 kts 267°
2026-04-14 13:48 51.49315 0.42106 3100 ft 133 kts 267°
2026-04-14 13:49 51.49361 0.40629 3122 ft 133 kts 268°
2026-04-14 13:49 51.49420 0.39134 3086 ft 132 kts 268°
2026-04-14 13:49 51.49471 0.37677 3101 ft 133 kts 267°
2026-04-14 13:49 51.49515 0.36201 3090 ft 133 kts 266°
2026-04-14 13:50 51.49567 0.34712 3082 ft 133 kts 268°
2026-04-14 13:50 51.49620 0.33231 3085 ft 134 kts 267°
2026-04-14 13:50 51.49668 0.31750 3109 ft 134 kts 268°
2026-04-14 13:50 51.49721 0.30257 3082 ft 135 kts 267°
2026-04-14 13:51 51.49771 0.28782 3083 ft 132 kts 266°
2026-04-14 13:51 51.49813 0.27306 3085 ft 132 kts 267°
2026-04-14 13:51 51.49869 0.25824 3114 ft 134 kts 266°
2026-04-14 13:51 51.49918 0.24324 3075 ft 134 kts 267°
2026-04-14 13:52 51.49967 0.22869 3134 ft 134 kts 267°
2026-04-14 13:52 51.50013 0.21376 3058 ft 132 kts 266°
2026-04-14 13:52 51.50059 0.19905 3043 ft 133 kts 267°
2026-04-14 13:52 51.50112 0.18355 2698 ft 146 kts 268°
2026-04-14 13:53 51.50164 0.16773 2318 ft 137 kts 268°
2026-04-14 13:53 51.50214 0.15262 1985 ft 135 kts 268°
2026-04-14 13:53 51.50261 0.13789 1648 ft 129 kts 267°
2026-04-14 13:53 51.50306 0.12366 1321 ft 126 kts 268°
2026-04-14 13:54 51.50345 0.10953 1005 ft 128 kts 268°
2026-04-14 13:54 51.50397 0.09540 745 ft 128 kts 269°
2026-04-14 13:54 51.50435 0.08102 402 ft 129 kts 268°
2026-04-14 13:54 51.50483 0.06655 55 ft 129 kts 272°
2026-04-14 13:55 51.50521 0.05412 24 ft 84 kts 272°